This is the latest recevied weather packets stored in our database for station/object DO6DD-13. If no packets are shown the sender has not sent any weather packets the latest 1 day(s).
| Time | Temp. | Humidity | Pressure | Rain* | Wind** | Luminosity | Snow |
|---|---|---|---|---|---|---|---|
| 1778096421 | 8.33° C | 94% | 1010.8 hPa | - | - | 2 W/m² | - |
| 1778095220 | 8.33° C | 93% | 1010.7 hPa | - | - | 4 W/m² | - |
| 1778094019 | 8.33° C | 93% | 1010.4 hPa | - | - | 6 W/m² | - |
| 1778092818 | 8.33° C | 92% | 1010.2 hPa | - | - | 12 W/m² | - |
| 1778091617 | 8.33° C | 91% | 1010 hPa | - | - | 20 W/m² | - |
| 1778090426 | 8.33° C | 91% | 1009.9 hPa | - | - | 20 W/m² | - |
| 1778089225 | 8.33° C | 91% | 1009.6 hPa | - | - | 28 W/m² | - |
| 1778088624 | 8.33° C | 91% | 1009.5 hPa | - | - | 36 W/m² | - |
| 1778088024 | 8.33° C | 90% | 1009.4 hPa | - | - | 52 W/m² | - |
| 1778087423 | 8.33° C | 90% | 1009.4 hPa | - | - | 80 W/m² | - |
| 1778086222 | 8.33° C | 92% | 1009.4 hPa | - | - | 72 W/m² | - |
| 1778084421 | 8.33° C | 92% | 1009.4 hPa | - | - | 46 W/m² | - |
| 1778083820 | 8.33° C | 92% | 1009.4 hPa | - | - | 48 W/m² | - |
| 1778083220 | 7.78° C | 92% | 1009.4 hPa | - | - | 44 W/m² | - |
| 1778082019 | 8.33° C | 92% | 1009.4 hPa | - | - | 46 W/m² | - |
| 1778080818 | 7.78° C | 91% | 1009.3 hPa | - | - | 68 W/m² | - |
| 1778079617 | 8.33° C | 91% | 1009.2 hPa | - | - | 78 W/m² | - |
| 1778078416 | 8.33° C | 93% | 1009.1 hPa | - | - | 76 W/m² | - |
| 1778077225 | 8.33° C | 92% | 1009 hPa | - | - | 70 W/m² | - |
| 1778076024 | 8.33° C | 93% | 1009 hPa | - | - | 70 W/m² | - |
| 1778074823 | 8.33° C | 93% | 1009 hPa | - | - | 56 W/m² | - |
| 1778073622 | 8.33° C | 93% | 1008.8 hPa | - | - | 58 W/m² | - |
| 1778071831 | 8.33° C | 93% | 1008.6 hPa | - | - | 44 W/m² | - |
| 1778070620 | 8.33° C | 93% | 1008.5 hPa | - | - | 50 W/m² | - |
| 1778069429 | 8.33° C | 93% | 1008.4 hPa | - | - | 52 W/m² | - |
* Rain since midnight (hover to see other rain measurements)
** Current wind speed in m/s (hover to see current wind gust speed)